Weather in Khotiml

Russia / Ivanovo Oblast     56°39′10″N   41°42′39″E
temp.,
°C
wind,
m/s
gust,
m/s
humid.,
%
clouds,
%
prec.,
mm/h
press.,
hPa
HPBL,
m
25 february, thu
thu2500:00−16s4994100 0.5 1029457
03:00−16s4995100 1.3 1026453
06:00−16s51195100 2.1 1019500
09:00−14s51095100 4.8 1015476
12:00−10sse3694100 2.2 1012353
15:00−7sse2394100 2.8 1011249
18:00−7ese129798 0.4 101122
21:00−7ese119799 0.6 101253
26 february, fri
fri2600:00−5ese1197100 0.4 101138
03:00−5ese2297100 0.8 101172
06:00−5ese3497100 0.3 1009120
09:00−4se3598100 0.8 1007138
12:00−1sse3798100 1.6 1003232
15:00+2ssw310100100 5.3 1000393
18:00+2w51499100 3.7 997716
21:00+1w51197100 3.9 996680
27 february, sat
sat2700:00+1w41098100 0.4 994593
03:000w51197100 1.5 994793
06:000wnw51097100 0.7 994706
09:00−3nw4991100 1.3 996478
12:00−6n5793100 0.6 998476
15:00−8n5991100 0.9 1002656
18:00−11n51091100 0.2 1005657
21:00−13n41091100 0.3 1009541
28 february, sun
sun2800:00−16n499388 0.0 1011305
03:00−17nnw399466 0.0 1013252
06:00−19nnw38950 0.0 1015209
09:00−18nnw37930 0.0 1016265
12:00−13nnw369065 0.0 1017410
15:00−11nnw468978 0.0 1018499
18:00−13nnw389599 0.0 1019200
21:00−15n239758 0.0 102162
1 march, mon
mon100:00−16nnw229724 0.0 102321
03:00−16nw229842 0.0 102420
06:00−15wnw129796 0.1 102520
09:00−11wsw129697 0.1 102583
12:00−4sw359499 0.0 1025330
15:00−2wsw479298 0.1 1023639
18:00−2wsw41095100 0.1 1021506
21:000w51292100 0.1 1019673